Flag for Canada Weather past 2 weeks in Montreal, Quebec, Canada

Now
12 °F

Passing clouds.


Feels Like: -3 °F
Forecast: 6 / 24 °F
Wind: 13 mph from Northwest

Location: Montreal - Pierre Elliot Trudeau International Aiport

Current Time: Mar 5, 2015 at 6:04:28 AM

Latest Report: Mar 5, 2015 at 5:00 AM


Visibility: 15 mi

Pressure: 30.08 "Hg

Humidity: 48%

Dew point: -4 °F

Location of MontrealLocation

Historic Weather in Montreal — Graph

°F

Montreal temperature yesterday

Maximum temperature yesterday: 36 °F (at 3:00 PM)
Minimum temperature yesterday: 25 °F (at 12:00 AM)
Average temperature yesterday: 29 °F

Past Weeks' High & Low Weather Summary

 TemperatureHumidityPressure
High36 °F (Mar 4, 3:00 PM)93% (Mar 3, 11:00 PM)30.74 "Hg (Mar 3, 11:00 PM)
Low-13 °F (Feb 24, 1:00 AM)38% (Mar 3, 12:00 PM)29.53 "Hg (Mar 3, 11:45 PM)
Average12 °F63%30.10 "Hg
* Reported Feb 18 5:00 AM — Mar 5 5:00 AM, Montreal, Weather by CustomWeather, © 2015

Note: Actual official high and low records may vary slightly from our data, if they occured in-between our weather recording intervals... More about our weather records

Advertising

Montreal weather history for previous 24 hours

 ConditionsComfort  
Time TempWeatherWind HumidityBarometerVisibility
5:00 AM
Thu, Mar 5
12 °FPassing clouds.13 mph48%30.08 "Hg15 mi
4:00 AM16 °FPassing clouds.10 mph48%30.03 "Hg15 mi
3:00 AM18 °FPassing clouds.10 mph68%29.99 "Hg15 mi
2:00 AM19 °FLight snow. Mostly cloudy.14 mph63%29.95 "Hg4 mi
1:00 AM21 °FPassing clouds.15 mph45%29.93 "Hg15 mi
12:00 AM23 °FPassing clouds.17 mph46%29.87 "Hg15 mi
11:00 PM
Wed, Mar 4
27 °FPassing clouds.21 mph43%29.88 "Hg15 mi
10:00 PM28 °FPassing clouds.20 mph43%29.82 "Hg15 mi
9:00 PM28 °FPassing clouds.17 mph43%29.77 "Hg15 mi
8:00 PM32 °FPartly cloudy.16 mph51%29.76 "Hg15 mi
7:00 PM30 °FPassing clouds.15 mph69%29.73 "Hg15 mi
5:00 PM34 °FPartly sunny.20 mph56%29.70 "Hg15 mi
4:00 PM36 °FBroken clouds.23 mph48%29.71 "Hg15 mi
3:00 PM36 °FBroken clouds.20 mph48%29.70 "Hg15 mi
2:00 PM34 °FScattered clouds.26 mph51%29.69 "Hg15 mi
1:00 PM34 °FScattered clouds.24 mph60%29.70 "Hg15 mi
12:00 PM34 °FBroken clouds.26 mph65%29.72 "Hg15 mi
11:00 AM30 °FSnow flurries. Partly sunny.23 mph80%29.72 "Hg15 mi
10:00 AM30 °FOvercast.24 mph69%29.72 "Hg12 mi
9:00 AM30 °FLight snow. Overcast.17 mph80%29.70 "Hg15 mi
8:00 AM27 °FOvercast.12 mph80%29.68 "Hg15 mi
7:00 AM27 °FPartly sunny.12 mph74%29.65 "Hg15 mi
6:00 AM27 °FPassing clouds.22 mph74%29.64 "Hg15 mi
Weather by CustomWeather, © 2015

See weather overviewHow to use our weather pages